Location: Village de las Huertas
(35.3014°N, 106.4095°W)
Time: 08:22:53
(UTC+00:00)

Geosat - Pass Details

Date: 29 October 2020
Orbit: 763 x 766 km, 108.0° (Epoch: 04 December)

Event Time Altitude Azimuth Distance (km) Brightness Sun altitude
Rises 12:19:27 0° 163° (SSE) 3,209 7.6 -13.9°
Reaches altitude 10° 12:21:44 10° 167° (SSE) 2,287 6.7 -13.4°
Maximum altitude 12:26:40 61° 247° (WSW) 860 4.0 -12.4°
Drops below altitude 10° 12:31:38 10° 328° (NNW) 2,302 6.1 -11.4°
Sets 12:33:57 0° 332° (NNW) 3,232 6.9 -11.0°
